Location: *
(33.8649°S, 62.1526°E)
Time: 12:44:15
(UTC+00:00)

Resurs 1-4 Rocket - Pass Details

Date: 17 January 2021
Orbit: 800 x 813 km, 98.6° (Epoch: 02 March)

Event Time Altitude Azimuth Distance (km) Brightness Sun altitude
Exits shadow 21:57:12 12° 239° (WSW) 2,274 4.4 -29.0°
Drops below altitude 10° 21:57:51 10° 233° (SW) 2,423 4.6 -29.0°
Sets 22:01:03 0° 213° (SSW) 3,366 5.6 -28.6°
